TimeEDT,TemperatureF,Dew PointF,Humidity,Sea Level PressureIn,VisibilityMPH,Wind Direction,Wind SpeedMPH,Gust SpeedMPH,PrecipitationIn,Events,Conditions,WindDirDegrees,DateUTC
12:53 AM,50.0,48.9,96,29.73,10.0,SW,4.6,-,0.06,Rain,Light Rain,220,2013-03-13 04:53:00
1:46 AM,50.0,48.2,94,29.73,10.0,Calm,Calm,-,0.01,,Overcast,0,2013-03-13 05:46:00
1:53 AM,50.0,48.9,96,29.74,10.0,Calm,Calm,-,0.01,,Overcast,0,2013-03-13 05:53:00
2:05 AM,50.0,48.2,94,29.74,10.0,Variable,3.5,-,N/A,,Overcast,0,2013-03-13 06:05:00
2:53 AM,48.2,46.4,93,29.74,10.0,WNW,9.2,-,N/A,Rain,Light Rain,290,2013-03-13 06:53:00
3:08 AM,46.4,44.6,93,29.74,10.0,WNW,9.2,16.1,0.00,,Overcast,300,2013-03-13 07:08:00
3:24 AM,46.4,42.8,87,29.73,10.0,NW,5.8,-,0.00,Rain,Light Rain,310,2013-03-13 07:24:00
3:53 AM,45.0,42.1,90,29.74,9.0,Variable,5.8,-,0.01,Rain,Light Rain,0,2013-03-13 07:53:00
4:53 AM,44.1,39.9,85,29.74,10.0,WNW,8.1,-,0.01,,Overcast,300,2013-03-13 08:53:00
5:53 AM,43.0,37.9,82,29.75,10.0,NW,9.2,-,N/A,,Overcast,310,2013-03-13 09:53:00
6:53 AM,41.0,35.1,79,29.76,10.0,NW,6.9,-,N/A,,Mostly Cloudy,310,2013-03-13 10:53:00
7:53 AM,39.9,34.0,79,29.77,10.0,NW,8.1,-,N/A,,Mostly Cloudy,310,2013-03-13 11:53:00
8:53 AM,42.1,33.1,70,29.77,10.0,Variable,4.6,-,N/A,,Clear,0,2013-03-13 12:53:00
9:53 AM,45.0,33.1,63,29.76,10.0,NW,10.4,19.6,N/A,,Clear,310,2013-03-13 13:53:00
10:53 AM,46.0,32.0,58,29.75,10.0,WNW,8.1,-,N/A,,Clear,300,2013-03-13 14:53:00
11:53 AM,48.0,32.0,54,29.75,10.0,WNW,8.1,24.2,N/A,,Clear,300,2013-03-13 15:53:00
12:53 PM,48.0,30.0,50,29.74,10.0,WNW,11.5,17.3,N/A,,Clear,290,2013-03-13 16:53:00
1:53 PM,51.1,30.0,44,29.72,10.0,WNW,10.4,18.4,N/A,,Clear,290,2013-03-13 17:53:00
2:53 PM,53.1,30.0,41,29.70,10.0,WNW,10.4,17.3,N/A,,Clear,300,2013-03-13 18:53:00
3:53 PM,53.1,27.0,37,29.70,10.0,West,12.7,18.4,N/A,,Clear,280,2013-03-13 19:53:00
4:53 PM,52.0,25.0,35,29.70,10.0,West,15.0,19.6,N/A,,Clear,280,2013-03-13 20:53:00
5:53 PM,50.0,21.9,33,29.70,10.0,WNW,10.4,19.6,N/A,,Clear,300,2013-03-13 21:53:00
6:53 PM,46.0,21.0,37,29.74,10.0,WNW,6.9,-,N/A,,Clear,300,2013-03-13 22:53:00
7:53 PM,44.1,19.9,38,29.77,10.0,NW,6.9,-,N/A,,Clear,310,2013-03-13 23:53:00
8:53 PM,41.0,21.0,45,29.79,10.0,WNW,3.5,-,N/A,,Clear,290,2013-03-14 00:53:00
9:53 PM,37.0,25.0,62,29.79,10.0,Calm,Calm,-,N/A,,Clear,0,2013-03-14 01:53:00
10:53 PM,33.1,26.1,75,29.79,10.0,Calm,Calm,-,N/A,,Clear,0,2013-03-14 02:53:00
11:53 PM,32.0,28.0,85,29.78,10.0,Calm,Calm,-,N/A,,Clear,0,2013-03-14 03:53:00